Tracking 30743 objects as of 20-Jun-2025
HD Live streaming from Space Station
objects crossing your sky now

STARLINK-31042

Track STARLINK-31042 now!
10-day predictions
STARLINK-31042 is classified as:


NORAD ID: 58739
Int'l Code: 2024-005M
Perigee: 565.1 km
Apogee: 567.2 km
Inclination: 43.0 °
Period: 95.8 minutes
Semi major axis: 6937 km
RCS: Unknown
Launch date: January 7, 2024
Source: United States (US)
Launch site: AIR FORCE EASTERN TEST RANGE (AFETR)
Your satellite tracking list
Your tracking list is empty




NASA's NSSDC Master Catalog

Two Line Element Set (TLE):
1 58739U 24005M   25170.46383453 -.00000713  00000-0 -37659-4 0  9991
2 58739  43.0013 212.0830 0001516 271.2135  88.8533 15.02550443 80827
Source of the keplerian elements: AFSPC